This is the latest recevied weather packets stored in our database for station/object KC4BAM. If no packets are shown the sender has not sent any weather packets the latest 10 day(s).
| Time | Temp. | Humidity | Pressure | Rain* | Wind** | Luminosity | Snow |
|---|---|---|---|---|---|---|---|
| 1777055422 | 24.44° C | 61% | 1000.1 hPa | 0 mm | - | 243 W/m² | - |
| 1777055120 | 25° C | 61% | 1000 hPa | 0 mm | - | 189 W/m² | - |
| 1777054815 | 25° C | 60% | 999.9 hPa | 0 mm | - | 194 W/m² | - |
| 1777054513 | 24.44° C | 60% | 1000.1 hPa | 0 mm | - | 180 W/m² | - |
| 1777054210 | 24.44° C | 60% | 1000.2 hPa | 0 mm | - | 141 W/m² | - |
| 1777053908 | 24.44° C | 60% | 1000.2 hPa | 0 mm | - | 153 W/m² | - |
| 1777053603 | 24.44° C | 60% | 1000.5 hPa | 0 mm | - | 150 W/m² | - |
| 1777053297 | 24.44° C | 61% | 1000.4 hPa | 0 mm | - | 154 W/m² | - |
| 1777052993 | 24.44° C | 62% | 1000.4 hPa | 0 mm | - | 169 W/m² | - |
| 1777052690 | 24.44° C | 62% | 1000.5 hPa | 0 mm | - | 157 W/m² | - |
| 1777052389 | 24.44° C | 62% | 1000.5 hPa | 0 mm | - | 134 W/m² | - |
| 1777052086 | 24.44° C | 62% | 1000.6 hPa | 0 mm | - | 129 W/m² | - |
| 1777051783 | 24.44° C | 62% | 1000.8 hPa | 0 mm | - | 158 W/m² | - |
| 1777051479 | 25° C | 62% | 1000.7 hPa | 0 mm | - | 157 W/m² | - |
| 1777051175 | 25° C | 62% | 1000.7 hPa | 0 mm | - | 333 W/m² | - |
| 1777050871 | 25° C | 62% | 1001 hPa | 0 mm | - | 406 W/m² | - |
| 1777050567 | 24.44° C | 63% | 1001.1 hPa | 0 mm | - | 272 W/m² | - |
| 1777050266 | 23.89° C | 63% | 1001.3 hPa | 0 mm | - | 197 W/m² | - |
| 1777049962 | 23.89° C | 62% | 1001.3 hPa | 0 mm | - | 221 W/m² | - |
| 1777049656 | 24.44° C | 62% | 1001.3 hPa | 0 mm | - | 187 W/m² | - |
| 1777049355 | 24.44° C | 61% | 1001.2 hPa | 0 mm | - | 264 W/m² | - |
| 1777049051 | 24.44° C | 61% | 1001.2 hPa | 0 mm | - | 323 W/m² | - |
* Rain latest hour (hover to see other rain measurements)
** Current wind speed in m/s (hover to see current wind gust speed)